Terminal Aerodrome Forecast
Issued by NWS

Home | Current Version | Previous Version | Text Only | Print | Product List | Glossary On
Versions: 1 2 3 4 5 6 7 8 9 10 11 12 13 14 15 16 17 18 19 20 21 22 23 24 25 26 27 28 29 30 31 32
000
FTUS41 KOKX 170523
TAFSWF
TAF
KSWF 170523Z 1706/1812 34008KT P6SM SKC
     FM171200 30005KT P6SM SKC
     FM171500 34004KT P6SM SKC
     FM171700 27004KT P6SM SKC
     FM172000 23004KT P6SM SKC
      AMD NOT SKED=

USA.gov is the U.S. government's official web portal to all federal, state and local government web resources and services.